Wind_Speed
42 42 42 41 41 41 42 42 41 41 40 40 40 41 41 41 43 43 43 44 45 46 47 48 48 48 48 48 48 47 47 46 46 45 46 45 45 44
42 42 43 42 41 42 42 42 41 39 38 39 40 41 40 41 42 43 44 46 46 47 47 48 48 48 48 47 47 46 46 45 44 44 44 44 44 44
41 42 41 40 41 41 41 40 40 39 38 38 40 40 40 41 42 43 44 45 45 46 46 46 46 47 47 47 46 46 45 44 44 43 44 44 42 41
39 40 39 40 40 39 40 40 39 38 38 38 38 38 39 40 41 42 43 43 43 44 44 44 45 46 46 45 44 44 44 43 43 43 43 42 41 39
36 36 38 39 39 39 39 38 37 37 38 38 38 38 38 39 39 40 40 41 41 41 41 42 42 43 43 42 42 43 43 42 42 41 40 39 38 36
35 35 35 35 36 36 36 36 37 38 38 38 38 38 38 39 39 39 38 38 39 40 40 40 41 41 41 41 41 41 41 40 39 38 38 37 36 36
33 33 32 32 33 33 33 33 35 36 37 37 37 36 37 37 37 37 37 37 37 38 39 40 41 41 40 40 40 40 38 37 37 36 35 34 34 34
29 30 31 31 31 31 31 32 33 34 35 35 35 36 36 36 36 36 35 36 36 37 38 39 39 38 37 38 38 37 36 36 35 34 33 32 32 31
29 29 29 29 30 32 31 31 32 33 33 32 32 33 34 34 34 34 34 34 35 36 37 36 35 34 35 34 34 33 33 33 32 31 31 30 29 30
29 27 27 28 29 30 30 30 29 29 28 29 30 30 31 31 31 32 33 33 34 35 34 33 32 32 31 31 31 30 30 31 30 28 28 28 28 28
28 26 27 27 28 29 29 28 28 28 28 28 28 29 30 30 30 30 32 33 32 32 31 30 29 29 29 28 29 29 29 29 28 27 27 26 26 27
27 26 26 26 27 28 28 28 28 28 28 27 28 28 28 28 29 30 30 30 30 29 28 28 28 28 27 27 27 28 28 27 27 26 26 26 25 26
26 26 26 26 26 26 26 26 26 26 26 26 26 27 27 27 27 28 28 29 28 27 27 28 28 28 28 27 27 27 26 25 24 23 24 25 24 24
26 26 26 26 25 25 24 23 23 23 23 24 24 25 25 26 26 27 27 28 27 27 27 28 27 27 27 26 25 24 23 23 22 22 23 22 22 22
25 25 24 25 24 24 23 23 23 23 23 23 23 24 24 25 25 26 26 26 26 26 26 26 26 26 25 25 24 23 22 22 22 22 21 21 21 20
24 24 23 23 23 22 23 23 23 23 23 23 23 24 24 24 25 25 25 24 24 24 24 25 24 24 24 23 22 21 20 20 20 20 20 19 19 18
23 22 21 21 22 22 22 22 22 22 22 22 22 22 23 23 23 23 23 24 23 23 23 22 22 22 22 21 20 19 19 18 18 18 17 16 16 15
21 20 20 20 20 20 20 20 20 20 21 21 21 22 22 22 22 22 22 22 21 21 20 20 20 19 19 19 19 18 17 16 16 15 15 14 13 12
19 20 19 19 19 19 19 19 19 19 19 20 20 20 20 20 20 20 20 19 18 18 18 18 18 18 17 17 17 16 15 14 14 13 12 11 10 9
18 18 18 18 17 17 18 18 18 18 18 18 18 18 17 17 17 17 16 16 16 16 16 17 16 16 15 15 14 14 13 12 12 11 10 8 7 6
16 16 16 17 17 17 16 17 17 17 17 17 17 16 15 15 15 14 14 14 14 14 14 14 14 14 13 13 12 12 11 11 10 9 8 6 5 4
15 15 15 14 14 15 15 14 14 14 14 14 14 13 13 12 12 12 13 13 12 12 12 12 12 11 11 10 10 9 9 9 9 8 7 5 5 4
14 14 13 12 11 12 12 12 11 11 11 11 11 11 11 11 11 11 12 11 11 10 10 9 9 9 9 9 8 8 8 8 8 7 7 6 6 6
Wind_Direction
264 265 265 266 267 268 268 268 270 270 270 272 272 273 274 274 275 276 277 278 279 281 282 283 284 285 287 288 288 288 289 289 289 290 291 292 293 293
263 265 266 266 267 268 269 268 269 271 273 273 273 273 273 274 275 277 278 279 281 282 282 283 284 285 287 287 287 288 289 289 290 290 292 292 294 294
264 265 266 266 267 268 269 269 269 270 271 273 273 273 275 276 277 279 279 280 281 282 283 284 284 286 287 287 287 288 289 290 291 291 292 293 294 295
265 266 266 267 267 268 269 269 270 270 272 274 274 275 276 278 279 281 282 282 282 282 284 285 286 288 288 287 288 288 289 290 291 292 293 294 295 296
266 267 268 268 267 268 269 269 270 270 271 273 275 278 279 280 281 281 282 282 283 284 287 288 289 290 289 289 289 290 290 290 291 292 293 294 295 297
265 266 268 269 268 267 268 270 271 271 272 274 277 279 281 282 282 282 283 284 285 286 288 290 291 292 292 292 291 290 290 290 291 292 293 294 295 297
265 266 267 267 268 268 269 271 272 274 274 275 279 280 281 283 284 284 286 287 288 290 291 291 291 292 292 292 291 291 290 290 291 293 293 294 295 296
266 267 266 265 265 266 269 272 274 275 275 276 278 281 282 284 286 286 286 288 289 291 292 292 292 292 292 292 291 291 290 291 293 294 293 295 295 295
265 266 265 264 265 266 270 274 275 276 276 277 277 281 283 285 286 287 288 289 291 294 296 295 294 293 293 292 291 291 292 294 295 295 295 295 294 294
263 263 264 264 266 267 269 272 275 276 275 276 279 281 283 285 286 287 289 290 293 295 296 296 296 296 296 294 293 294 296 297 298 298 297 296 295 296
264 264 266 268 268 266 267 270 272 274 276 278 279 281 283 285 287 288 290 291 293 295 296 297 299 299 297 295 295 297 298 298 298 297 297 298 298 298
263 265 268 270 269 269 270 272 272 273 274 276 278 280 281 283 287 290 292 293 294 294 295 296 299 299 297 297 297 298 298 297 297 297 297 297 299 301
264 268 270 272 272 273 273 272 272 273 273 274 277 281 282 285 288 291 293 295 296 297 298 298 299 299 300 299 299 299 298 297 297 298 297 297 299 302
266 269 271 272 274 274 273 273 274 274 275 276 278 281 284 286 288 291 293 296 298 298 299 301 301 302 302 302 301 300 299 298 298 298 297 298 300 302
266 268 269 272 274 274 272 271 273 275 277 278 278 281 285 288 290 292 294 296 298 300 302 303 304 306 306 306 305 302 300 298 297 297 298 298 301 302
264 265 267 268 271 273 272 271 272 274 274 275 278 282 285 288 290 293 296 297 299 302 305 306 308 309 309 309 308 306 305 303 302 301 300 299 300 300
263 264 265 265 267 269 268 269 271 271 272 276 279 283 285 287 290 293 297 299 302 305 307 308 309 311 312 312 312 311 310 309 308 306 304 304 303 302
265 267 269 268 268 267 266 267 268 268 270 274 279 283 285 288 290 294 298 301 304 307 309 310 311 314 314 313 314 314 313 312 313 313 313 312 311 308
269 271 271 270 269 266 265 267 268 268 270 274 280 283 284 287 290 295 299 302 304 309 313 314 314 315 316 315 316 317 316 314 316 318 319 318 318 318
272 273 273 271 269 267 264 265 269 270 272 278 282 285 287 289 292 296 300 302 304 310 316 319 320 320 319 319 319 319 319 320 321 324 326 327 331 337
274 275 275 272 269 266 264 265 269 272 275 279 284 288 288 291 294 298 301 304 307 312 317 320 324 326 326 326 325 326 328 330 333 336 340 348 358 5
274 274 273 273 270 267 267 267 271 275 276 282 287 290 290 292 297 299 301 304 308 312 316 320 326 334 337 338 341 345 348 350 353 357 358 6 17 27
276 274 273 270 265 267 269 269 272 277 280 283 287 291 291 294 299 302 303 305 309 313 319 324 333 343 350 354 357 1 4 8 11 17 24 31 41 43
Height
5633 5634 5635 5636 5636 5637 5638 5640 5641 5642 5643 5643 5643 5643 5642 5642 5640 5639 5638 5636 5634 5632 5630 5628 5626 5623 5621 5617 5614 5611 5608 5605 5601 5597 5594 5590 5587 5583
5623 5624 5625 5626 5627 5627 5628 5629 5630 5632 5632 5633 5633 5632 5631 5630 5629 5628 5627 5625 5622 5620 5618 5616 5613 5611 5608 5605 5601 5599 5596 5592 5589 5586 5582 5578 5575 5571
5612 5614 5615 5616 5617 5618 5618 5619 5620 5621 5622 5623 5622 5622 5621 5620 5619 5617 5615 5613 5611 5609 5606 5604 5601 5598 5595 5592 5589 5587 5584 5581 5578 5574 5571 5567 5564 5560
5603 5604 5605 5606 5607 5608 5608 5609 5610 5611 5611 5612 5613 5612 5611 5609 5608 5606 5604 5602 5600 5597 5595 5592 5589 5586 5583 5580 5578 5575 5572 5569 5566 5563 5560 5557 5553 5549
5594 5595 5596 5597 5598 5599 5599 5600 5601 5601 5601 5602 5603 5602 5600 5598 5597 5595 5593 5591 5588 5585 5583 5581 5578 5575 5572 5569 5566 5563 5560 5558 5555 5552 5548 5545 5542 5539
5585 5586 5587 5588 5588 5590 5590 5591 5591 5592 5592 5593 5593 5592 5590 5588 5586 5585 5583 5581 5578 5575 5573 5570 5567 5564 5561 5558 5556 5552 5549 5546 5544 5541 5538 5535 5532 5529
5576 5577 5578 5579 5580 5580 5581 5582 5582 5583 5583 5583 5583 5582 5581 5579 5577 5575 5573 5571 5569 5566 5563 5561 5557 5554 5550 5547 5544 5541 5539 5536 5534 5531 5528 5526 5523 5520
5568 5569 5570 5571 5571 5572 5573 5573 5574 5574 5574 5574 5573 5572 5571 5569 5568 5566 5563 5562 5561 5558 5554 5551 5547 5543 5540 5537 5534 5531 5529 5527 5524 5522 5519 5516 5514 5510
5561 5562 5563 5563 5564 5564 5565 5565 5565 5565 5565 5565 5564 5563 5562 5561 5559 5557 5555 5552 5550 5547 5543 5541 5537 5533 5530 5527 5524 5522 5520 5518 5515 5513 5510 5508 5505 5502
5553 5554 5555 5555 5556 5556 5557 5557 5557 5557 5557 5557 5556 5555 5554 5552 5550 5549 5546 5544 5542 5538 5534 5532 5529 5525 5522 5519 5517 5514 5511 5509 5507 5504 5502 5499 5497 5494
5545 5546 5547 5548 5548 5549 5550 5550 5550 5549 5549 5548 5548 5547 5546 5544 5542 5540 5538 5536 5534 5531 5526 5523 5521 5518 5515 5512 5509 5506 5503 5501 5499 5496 5494 5491 5489 5486
5538 5539 5540 5540 5541 5541 5541 5542 5542 5542 5541 5541 5540 5539 5538 5536 5534 5532 5530 5528 5525 5523 5519 5516 5513 5510 5508 5506 5502 5499 5496 5493 5491 5489 5486 5484 5481 5479
5531 5532 5532 5533 5533 5533 5534 5534 5534 5534 5534 5533 5533 5532 5530 5529 5527 5525 5522 5520 5517 5515 5512 5509 5506 5503 5500 5498 5496 5492 5489 5486 5484 5481 5479 5477 5475 5472
5524 5524 5524 5525 5525 5526 5526 5526 5526 5526 5526 5526 5526 5525 5523 5522 5520 5518 5515 5513 5510 5508 5504 5501 5499 5496 5493 5490 5488 5485 5482 5479 5477 5475 5473 5471 5469 5466
5516 5517 5517 5517 5518 5518 5518 5519 5519 5519 5519 5519 5518 5518 5517 5515 5513 5511 5509 5506 5504 5501 5497 5494 5492 5489 5486 5482 5480 5478 5475 5473 5470 5468 5467 5465 5463 5461
5508 5509 5509 5510 5510 5511 5511 5512 5512 5512 5512 5512 5512 5511 5510 5509 5507 5505 5502 5500 5498 5495 5492 5488 5485 5482 5479 5476 5473 5471 5468 5466 5464 5461 5460 5459 5457 5456
5500 5501 5501 5502 5503 5503 5504 5504 5505 5505 5505 5505 5505 5505 5503 5502 5500 5498 5496 5494 5491 5489 5487 5484 5480 5477 5474 5471 5469 5466 5463 5461 5458 5456 5454 5454 5453 5451
5493 5494 5495 5495 5496 5497 5497 5498 5499 5499 5499 5499 5499 5498 5497 5495 5494 5492 5490 5488 5485 5483 5481 5479 5476 5473 5471 5467 5465 5462 5459 5457 5455 5453 5451 5450 5449 5448
5488 5488 5489 5489 5490 5491 5491 5492 5493 5493 5493 5493 5492 5491 5490 5489 5488 5486 5485 5483 5481 5479 5477 5474 5472 5469 5467 5465 5462 5459 5456 5454 5452 5450 5448 5447 5446 5445
5482 5483 5483 5484 5484 5485 5486 5487 5487 5487 5487 5487 5486 5486 5485 5483 5482 5481 5479 5478 5476 5475 5473 5470 5468 5465 5463 5461 5459 5457 5454 5452 5450 5448 5447 5445 5444 5444
5477 5477 5478 5478 5479 5480 5480 5481 5482 5482 5482 5482 5481 5480 5480 5479 5478 5476 5475 5474 5472 5471 5469 5467 5465 5463 5460 5458 5457 5455 5452 5450 5448 5447 5445 5444 5444 5443
5472 5473 5473 5473 5474 5475 5476 5477 5477 5477 5477 5477 5477 5476 5475 5475 5474 5473 5472 5470 5469 5468 5466 5465 5463 5461 5459 5457 5455 5453 5451 5449 5447 5446 5444 5444 5443 5443
5468 5468 5469 5469 5470 5471 5472 5473 5474 5474 5474 5474 5473 5473 5472 5471 5470 5469 5468 5467 5466 5465 5464 5463 5461 5459 5457 5456 5454 5453 5451 5450 5448 5447 5446 5444 5444 5443